Location: Newark
(35.2672°N, 80.7344°W)
Time: 13:57:50
(UTC+00:00)

Tiros 1 - Pass Details

Date: 26 January 2020
Orbit: 631 x 664 km, 48.4° (Epoch: 22 February)

Event Time Altitude Azimuth Distance (km) Brightness Sun altitude
Rises 00:18:41 0° 305° (NW) 2,980 11.3 -19.4°
Reaches altitude 10° 00:21:01 10° 303° (WNW) 2,070 10.4 -19.9°
Maximum altitude 00:25:47 72° 220° (SW) 695 7.3 -20.8°
Enters shadow 00:28:02 31° 143° (SE) 1,156 8.2 -21.3°
Drops below altitude 10° 00:30:33 10° 136° (SE) 2,071 - -21.8°
Sets 00:32:54 0° 134° (SE) 2,981 - -22.3°
